Greenville, ME

6:59 AM EDT on March 27, 2017 (GMT -0400)
Greenville

Weather History for KGNR - May, 2013

Change the Weather History Date:

Thursday, May 16, 2013

  Actual Average (KMLT) Record (KMLT)
Temperature  
Mean Temperature 52 °F -  
Max Temperature 63 °F 67 °F 93 °F (1932)
Min Temperature 45 °F 41 °F 24 °F (1913)
Degree Days  
Heating Degree Days 12    
Growing Degree Days 2 (Base 50)    
Moisture  
Dew Point 44 °F    
Average Humidity 80    
Maximum Humidity 100    
Minimum Humidity 53    
Precipitation  
Precipitation 0.10 in - - ()
Sea Level Pressure  
Sea Level Pressure 29.62 in    
Wind  
Wind Speed 4 mph (NW)    
Max Wind Speed 12 mph    
Max Gust Speed 23 mph    
Averages and records for this station are not official NWS values.
T = Trace of Precipitation, MM = Missing Value Source: NWS Daily Summary

Daily Weather History Graph

Daily Weather History Graph

Search for Another Location

Airport or City:

Trip Planner

Search our weather history database for the weather conditions in past years. The results will help you decide how hot, cold, wet, or windy it might be!

Date:

Astronomy

May. 16, 2013 Rise Set
Actual Time 5:06 AM EDT 8:03 PM EDT
Civil Twilight 4:31 AM EDT 8:38 PM EDT
Nautical Twilight 3:47 AM EDT 9:23 PM EDT
Astronomical Twilight 2:54 AM EDT 10:16 PM EDT
Moon 10:41 AM EDT (5/16) 12:18 AM EDT (5/16)
Length of Visible Light 16h 06m
Length of Day
14h 57m
Waxing Crescent, 35% of the Moon is Illuminated
May 16
Waxing Crescent
May 18
First Quarter
May 25
Full
May 31
Last Quarter
Jun 8
New

Hourly Weather History & Observations

Time (EDT) Temp. Windchill Dew Point Humidity Pressure Visibility Wind Dir Wind Speed Gust Speed Precip Events Conditions
12:56 AM 45.0 °F 42.6 °F 44.1 °F 97% 29.60 in - Variable 4.6 mph - 0.03 in   Unknown
1:56 AM 45.0 °F 43.5 °F 45.0 °F 100% 29.58 in - South 3.5 mph - 0.02 in   Unknown
2:56 AM 45.0 °F - 45.0 °F 100% 29.56 in - Calm Calm - N/A   Unknown
3:56 AM 46.0 °F - 45.0 °F 96% 29.56 in - Calm Calm - N/A   Unknown
4:56 AM 46.0 °F - 45.0 °F 96% 29.56 in - Calm Calm - N/A   Unknown
5:56 AM 45.0 °F - 45.0 °F 100% 29.57 in - Calm Calm - N/A   Unknown
6:56 AM 48.9 °F - 46.0 °F 90% 29.57 in - Calm Calm - N/A   Unknown
7:56 AM 53.1 °F - 48.0 °F 83% 29.57 in - Calm Calm - N/A   Unknown
8:56 AM 55.0 °F - 46.9 °F 74% 29.58 in - Variable 3.5 mph - N/A   Unknown
9:56 AM 59.0 °F - 46.9 °F 64% 29.57 in - Calm Calm - N/A   Unknown
10:56 AM 59.0 °F - 46.0 °F 62% 29.57 in - Variable 3.5 mph - N/A   Unknown
11:56 AM 60.1 °F - 43.0 °F 53% 29.56 in - Variable 4.6 mph - N/A   Unknown
12:56 PM 57.9 °F - 50.0 °F 75% 29.57 in - NW 4.6 mph - 0.02 in   Unknown
1:56 PM 55.9 °F - 46.9 °F 72% 29.59 in - WNW 10.4 mph 23.0 mph N/A   Unknown
2:56 PM 54.0 °F - 46.9 °F 77% 29.60 in - NNW 11.5 mph - 0.03 in   Unknown
3:56 PM 54.0 °F - 43.0 °F 66% 29.62 in - NNW 10.4 mph 16.1 mph N/A   Unknown
4:56 PM 50.0 °F - 43.0 °F 77% 29.66 in - NW 8.1 mph 21.9 mph N/A   Unknown
5:56 PM 50.0 °F - 42.1 °F 74% 29.66 in - Variable 6.9 mph - N/A   Unknown
6:56 PM 48.9 °F - 42.1 °F 77% 29.68 in - Variable 5.8 mph - N/A   Unknown
7:56 PM 48.0 °F - 41.0 °F 77% 29.70 in - Variable 4.6 mph - N/A   Unknown
8:56 PM 46.9 °F - 39.9 °F 77% 29.73 in - Variable 3.5 mph - N/A   Unknown
9:56 PM 46.9 °F - 41.0 °F 80% 29.75 in - Calm Calm - N/A   Unknown
10:56 PM 46.9 °F - 41.0 °F 80% 29.76 in - Variable 5.8 mph - N/A   Unknown
11:56 PM 46.9 °F - 41.0 °F 80% 29.76 in - Variable 6.9 mph - N/A   Unknown